This is the latest recevied weather packets stored in our database for station/object KD4UFD. If no packets are shown the sender has not sent any weather packets the latest 10 day(s).
| Time | Temp. | Humidity | Pressure | Rain* | Wind** | Luminosity | Snow |
|---|---|---|---|---|---|---|---|
| 1778087417 | 20° C | 94% | 1011.8 hPa | 0 mm | - | 378 W/m² | - |
| 1778087114 | 20° C | 96% | 1011.9 hPa | 0 mm | - | 384 W/m² | - |
| 1778086806 | 19.44° C | 96% | 1011.9 hPa | 0 mm | - | 371 W/m² | - |
| 1778086505 | 18.89° C | 97% | 1012 hPa | 0 mm | - | 210 W/m² | - |
| 1778086200 | 18.89° C | 98% | 1012.3 hPa | 0 mm | - | 228 W/m² | - |
| 1778085897 | 18.89° C | 98% | 1012.1 hPa | 0 mm | - | 213 W/m² | - |
| 1778085595 | 18.89° C | 98% | 1011.9 hPa | 0 mm | - | 239 W/m² | - |
| 1778085289 | 18.33° C | 98% | 1011.6 hPa | 0 mm | - | 222 W/m² | - |
| 1778084984 | 18.89° C | 98% | 1011.9 hPa | 0 mm | - | 216 W/m² | - |
| 1778084683 | 18.89° C | 98% | 1011.8 hPa | 0 mm | - | 242 W/m² | - |
| 1778084380 | 18.33° C | 98% | 1011.8 hPa | 0 mm | - | 223 W/m² | - |
| 1778084078 | 18.33° C | 98% | 1011.9 hPa | 0 mm | - | 354 W/m² | - |
| 1778083775 | 18.33° C | 99% | 1011.6 hPa | 0 mm | - | 287 W/m² | - |
| 1778083472 | 18.33° C | 99% | 1011.7 hPa | 0 mm | - | 316 W/m² | - |
| 1778083169 | 17.78° C | 99% | 1011.8 hPa | 0 mm | - | 370 W/m² | - |
| 1778082866 | 17.78° C | 99% | 1011.7 hPa | 0 mm | - | 200 W/m² | - |
| 1778081748 | 17.22° C | 99% | 1012.2 hPa | 0 mm | - | 108 W/m² | - |
| 1778081446 | 17.22° C | 99% | 1012.2 hPa | 0 mm | - | 128 W/m² | - |
| 1778081142 | 17.78° C | 99% | 1012.2 hPa | 0 mm | - | 133 W/m² | - |
| 1778080841 | 17.22° C | 99% | 1012.3 hPa | 0 mm | - | 123 W/m² | - |
| 1778080539 | 17.22° C | 99% | 1012.5 hPa | 1.78 mm | - | 142 W/m² | - |
| 1778080235 | 17.22° C | 99% | 1012.3 hPa | 1.78 mm | - | 151 W/m² | - |
| 1778079932 | 17.22° C | 99% | 1012.8 hPa | 0 mm | - | 95 W/m² | - |
| 1778079629 | 17.22° C | 99% | 1012.7 hPa | 1.27 mm | - | 77 W/m² | - |
| 1778079326 | 17.22° C | 99% | 1012.8 hPa | 1.27 mm | - | 100 W/m² | - |
* Rain latest hour (hover to see other rain measurements)
** Current wind speed in m/s (hover to see current wind gust speed)